Content
SEND FEEDBACK

Daily
Averages
Monthly
Summary
Norway

ALESUND, NORWAY


Home > Europe > Norway
Elevation: 72 feet     Latitude: 62 34N     Longitude: 006 07E

WEATHER
 
SELECT A DAY
Number of Records: 193,269;   Date Range: 7/2/96 - 7/27/14
 
SHARE

PRINT THIS DATA

[ ← Previous Day ]
WEATHER ALMANAC - FEBRUARY 13, 2013
[ Next Day → ]
[ °C ]   °F
Weather ElementAverageHighLow
Temperature29.6 °F35.6 °F (1:20 pm)17.6 °F (10:20 pm)
Dewpoint20.4 °F27 °F (1:00 am)14 °F (6:50 pm)
Humidity68.7 %86 % (8:50 pm)37 % (1:00 pm)
Barometer30.13 in30.21 in (1:00 am)30.04 in (11:20 pm)
Wind Speed6.7 mph11.5 mph (2:50 pm)
Weather ElementAverage
Visibility10.4 mi
Wind DirectionSSE (149.4 °)

Weather ElementTotal
Precipitation---
Heating Degree Days38.4 (Base 65)
Averaged from 51 records on February 13, 2013
WEATHER CONDITIONS BREAKOUT
WIND DIRECTION BREAKOUT
WEATHER BY HOUR - FEBRUARY 13, 2013
[ °C ]   °F
Local TimeTemperatureDewpointHumidityBarometerVisibilityWind DirectionWind SpeedGust SpeedPrecipitationEventsConditions
12:50 AM32.0 °F26.6 °F80 %30.18 in6.2 miSSE (150°)6.9 mphOvercast
1:00 AM32.0 °F27.0 °F74 %30.21 inSE (140°)6.7 mph
1:20 AM32.0 °F26.6 °F80 %30.18 in6.2 miSSE (150°)6.9 mphOvercast
1:50 AM32.0 °F26.6 °F80 %30.18 in6.2 miSSE (150°)8.1 mphOvercast
2:20 AM32.0 °F26.6 °F80 %30.18 in6.2 miSSE (150°)6.9 mphOvercast
2:50 AM32.0 °F26.6 °F80 %30.18 in6.2 miSSE (150°)6.9 mphOvercast
3:20 AM32.0 °F24.8 °F75 %30.18 in6.2 miSE (140°)8.1 mphOvercast
3:50 AM32.0 °F26.6 °F80 %30.18 in6.2 miSE (140°)6.9 mphSnowSnow Grains
4:20 AM32.0 °F26.6 °F80 %30.15 in6.2 miSE (130°)8.1 mphOvercast
4:50 AM32.0 °F26.6 °F80 %30.15 in6.2 miSE (140°)8.1 mphOvercast
5:20 AM32.0 °F24.8 °F75 %30.15 in6.2 miSE (140°)9.2 mphOvercast
5:50 AM32.0 °F24.8 °F75 %30.15 in6.2 miSSE (160°)9.2 mphMostly Cloudy
6:20 AM32.0 °F24.8 °F75 %30.15 in6.2 miSSE (150°)8.1 mphMostly Cloudy
6:50 AM30.2 °F24.8 °F80 %30.15 in6.2 miSSE (160°)6.9 mphMostly Cloudy
7:00 AM31.0 °F25.0 °F72 %30.17 in37.0 miSSE (160°)6.7 mphPartly Cloudy
7:20 AM30.2 °F24.8 °F80 %30.15 in6.2 miSouth (170°)5.8 mphScattered Clouds
7:50 AM32.0 °F23.0 °F69 %30.15 in6.2 miSouth (190°)5.8 mphScattered Clouds
8:20 AM32.0 °F23.0 °F69 %30.15 in6.2 miSouth (190°)5.8 mphScattered Clouds
8:50 AM30.2 °F23.0 °F75 %30.15 in6.2 miSouth (170°)4.6 mphScattered Clouds
9:20 AM28.4 °F21.2 °F74 %30.15 in6.2 miSouth (170°)4.6 mphPartly Cloudy
9:50 AM28.4 °F19.4 °F69 %30.15 in6.2 miSouth (170°)5.8 mphPartly Cloudy
10:20 AM30.2 °F21.2 °F69 %30.15 in6.2 miSouth (170°)5.8 mphPartly Cloudy
10:50 AM30.2 °F23.0 °F75 %30.15 in6.2 miSSE (160°)8.1 mphPartly Cloudy
11:20 AM33.8 °F19.4 °F56 %30.15 inSouth (170°)6.9 mphClear
11:50 AM33.8 °F19.4 °F56 %30.15 inSouth (180°)8.1 mphClear
12:20 PM33.8 °F19.4 °F56 %30.15 inSouth (180°)9.2 mphClear
12:50 PM33.8 °F19.4 °F56 %30.15 inSouth (180°)5.8 mphClear
1:00 PM35.0 °F18.0 °F37 %30.17 in47.0 miSouth (190°)6.7 mphPartly Cloudy
1:20 PM35.6 °F17.6 °F48 %30.15 inSouth (190°)6.9 mphClear
1:50 PM35.6 °F19.4 °F52 %30.15 inSouth (180°)6.9 mphClear
2:20 PM35.6 °F19.4 °F52 %30.15 inSouth (190°)9.2 mphClear
2:50 PM33.8 °F17.6 °F52 %30.12 inSSW (200°)11.5 mphClear
3:20 PM33.8 °F15.8 °F48 %30.12 inSSW (210°)9.2 mphClear
3:50 PM33.8 °F17.6 °F52 %30.12 inSSW (210°)10.4 mphClear
4:20 PM32.0 °F17.6 °F55 %30.12 inSSW (210°)9.2 mphClear
4:50 PM32.0 °F17.6 °F55 %30.12 inWSW (240°)11.5 mphClear
5:20 PM30.2 °F17.6 °F60 %30.12 inSSW (210°)9.2 mphClear
5:50 PM28.4 °F15.8 °F59 %30.12 inSSW (210°)5.8 mphClear
6:20 PM28.4 °F15.8 °F59 %30.12 inSSW (210°)4.6 mphClear
6:50 PM23.0 °F14.0 °F68 %30.09 inSouth (190°)4.6 mphClear
7:00 PM23.0 °F15.0 °F62 %30.13 in47.0 miSouth (180°)4.5 mphPartly Cloudy
7:20 PM23.0 °F15.8 °F74 %30.12 inSouth (180°)3.5 mphClear
7:50 PM21.2 °F14.0 °F74 %30.09 inVariable2.3 mphClear
8:20 PM21.2 °F14.0 °F74 %30.09 inVariable2.3 mphClear
8:50 PM19.4 °F15.8 °F86 %30.09 inCalmClear
9:20 PM19.4 °F15.8 °F86 %30.06 inNNE (30°)2.3 mphClear
9:50 PM19.4 °F14.0 °F80 %30.06 inVariable2.3 mphClear
10:20 PM17.6 °F14.0 °F86 %30.06 inENE (60°)5.8 mphClear
10:50 PM23.0 °F15.8 °F74 %30.06 in6.2 miNE (50°)6.9 mph
11:20 PM24.8 °F17.6 °F74 %30.04 in6.2 miEast (80°)10.4 mph
11:50 PM26.6 °F17.6 °F69 %30.04 in6.2 miEast (90°)8.1 mph
Hourly data recorded from ENAL, located miles away from Alesund, Norway







STORIES FROM OUR PARTNERS